EW7961 Weather Reports


Display with metric or nautical units.
time (UTC)temp
F
wind
direction
speed
MPH
gust
MPH
rain 1hr
in
rain 24hr
in
rain mn
in
humidity
%
barometer
mb
20260904231519 99 297 1.0 4.0 0.00 0.00 0.00 42 1012.7
20260904230518 99 300 1.0 2.0 0.00 0.00 0.00 41 1012.6
20260904225519 99 291 2.0 4.0 0.00 0.00 0.00 40 1012.6
20260904224519 100 290 2.0 4.0 0.00 0.00 0.00 40 1012.6
20260904223519 102 302 1.0 4.0 0.00 0.00 0.00 39 1012.7
20260904222519 103 299 1.0 3.0 0.00 0.00 0.00 39 1012.7
20260904221519 104 292 2.0 4.0 0.00 0.00 0.00 37 1012.7
20260904220519 105 293 2.0 4.0 0.00 0.00 0.00 35 1012.8
20260904215519 105 288 2.0 4.0 0.00 0.00 0.00 36 1012.9
20260904214517 104 293 2.0 5.0 0.00 0.00 0.00 36 1013.1
20260904213520 104 283 2.0 4.0 0.00 0.00 0.00 37 1013.2
20260904212600 103 286 2.0 3.0 0.00 0.00 0.00 38 1013.2
20260904210517 101 296 2.0 4.0 0.00 0.00 0.00 39 1013.5
20260904205517 101 274 2.0 4.0 0.00 0.00 0.00 38 1013.6
20260904204521 101 291 3.0 5.0 0.00 0.00 0.00 39 1013.6
20260904203532 101 317 1.0 2.0 0.00 0.00 0.00 39 1013.8
20260904202558 101 290 2.0 3.0 0.00 0.00 0.00 39 1014.0
20260904201638 100 284 2.0 3.0 0.00 0.00 0.00 40 1014.1
20260904200518 100 295 2.0 3.0 0.00 0.00 0.00 41 1014.2
20260904195518 99 284 2.0 3.0 0.00 0.00 0.00 42 1014.4
20260904194518 98 292 1.0 3.0 0.00 0.00 0.00 43 1014.6
20260904193518 99 292 2.0 3.0 0.00 0.00 0.00 43 1014.7
20260904192518 99 290 2.0 3.0 0.00 0.00 0.00 43 1014.8
20260904191524 100 268 3.0 6.0 0.00 0.00 0.00 42 1014.8
20260904190517 100 297 2.0 4.0 0.00 0.00 0.00 42 1014.9
20260904185519 99 288 2.0 3.0 0.00 0.00 0.00 42 1015.0
20260904184519 99 288 1.0 2.0 0.00 0.00 0.00 42 1015.1
20260904183559 98 294 2.0 3.0 0.00 0.00 0.00 44 1015.1
20260904182519 98 299 2.0 5.0 0.00 0.00 0.00 44 1015.2
20260904181519 97 279 2.0 4.0 0.00 0.00 0.00 45 1015.3
20260904180519 97 281 3.0 5.0 0.00 0.00 0.00 45 1015.4
20260904175518 97 287 2.0 4.0 0.00 0.00 0.00 45 1015.5
20260904174518 96 291 2.0 4.0 0.00 0.00 0.00 47 1015.5
20260904173517 96 289 2.0 4.0 0.00 0.00 0.00 47 1015.6
20260904172518 96 288 2.0 4.0 0.00 0.00 0.00 46 1015.7
20260904171518 96 284 2.0 4.0 0.00 0.00 0.00 47 1015.8
20260904170518 95 267 2.0 4.0 0.00 0.00 0.00 48 1015.9
20260904165518 95 294 2.0 3.0 0.00 0.00 0.00 49 1016.0
20260904164600 94 282 2.0 3.0 0.00 0.00 0.00 51 1016.1
20260904163518 94 280 2.0 4.0 0.00 0.00 0.00 52 1016.1
20260904162559 93 305 2.0 4.0 0.00 0.00 0.00 53 1016.1
20260904161559 93 280 2.0 4.0 0.00 0.00 0.00 53 1016.1
20260904160519 92 286 2.0 3.0 0.00 0.00 0.00 54 1016.2
20260904155519 92 276 2.0 3.0 0.00 0.00 0.00 54 1016.2
20260904154519 92 287 2.0 3.0 0.00 0.00 0.00 55 1016.2
20260904153519 91 301 2.0 3.0 0.00 0.00 0.00 55 1016.3
20260904152519 91 285 3.0 5.0 0.00 0.00 0.00 56 1016.2
20260904151519 91 286 2.0 3.0 0.00 0.00 0.00 57 1016.1
20260904150520 90 267 2.0 4.0 0.00 0.00 0.00 58 1016.1
20260904145520 89 277 2.0 4.0 0.00 0.00 0.00 59 1016.0
20260904144520 89 284 2.0 3.0 0.00 0.00 0.00 61 1016.0
20260904143520 88 285 2.0 3.0 0.00 0.00 0.00 62 1016.0
20260904142520 87 291 2.0 3.0 0.00 0.00 0.00 63 1016.0
20260904141537 87 295 2.0 3.0 0.00 0.00 0.00 64 1015.9
20260904140537 86 282 2.0 2.0 0.00 0.00 0.00 66 1016.0
20260904135522 85 280 2.0 2.0 0.00 0.00 0.00 66 1016.0
20260904134520 85 282 2.0 2.0 0.00 0.00 0.00 67 1016.1
20260904133602 84 283 2.0 2.0 0.00 0.00 0.00 68 1016.1
20260904132521 84 277 1.0 2.0 0.00 0.00 0.00 69 1016.1
20260904131521 84 267 2.0 3.0 0.00 0.00 0.00 70 1016.0
20260904130521 84 278 2.0 2.0 0.00 0.00 0.00 70 1016.1
20260904125521 84 271 2.0 2.0 0.00 0.00 0.00 71 1016.1
20260904124603 83 269 2.0 2.0 0.00 0.00 0.00 72 1016.1
20260904123521 81 274 2.0 2.0 0.00 0.00 0.00 76 1016.0
20260904122522 80 294 1.0 2.0 0.00 0.00 0.00 78 1016.0
20260904121522 80 264 2.0 2.0 0.00 0.00 0.00 77 1015.9
20260904120522 80 271 1.0 2.0 0.00 0.00 0.00 78 1015.8
20260904115522 80 274 1.0 2.0 0.00 0.00 0.00 77 1015.8
20260904114522 80 276 1.0 2.0 0.00 0.00 0.00 77 1015.7
20260904113522 80 278 1.0 2.0 0.00 0.00 0.00 77 1015.7
20260904112522 81 273 1.0 2.0 0.00 0.00 0.00 76 1015.6
20260904111642 81 280 1.0 2.0 0.00 0.00 0.00 76 1015.5
20260904110523 81 286 1.0 2.0 0.00 0.00 0.00 75 1015.3
20260904105522 81 283 1.0 2.0 0.00 0.00 0.00 75 1015.2
20260904104523 81 276 1.0 2.0 0.00 0.00 0.00 75 1015.2
20260904103523 81 277 1.0 2.0 0.00 0.00 0.00 74 1015.1
20260904102523 82 302 1.0 1.0 0.00 0.00 0.00 74 1015.0
20260904101525 82 276 1.0 2.0 0.00 0.00 0.00 73 1014.9
20260904100525 82 283 1.0 2.0 0.00 0.00 0.00 73 1014.9
20260904095523 82 280 1.0 2.0 0.00 0.00 0.00 73 1014.9
20260904094524 82 284 1.0 2.0 0.00 0.00 0.00 73 1014.9
20260904093523 83 283 0.0 1.0 0.00 0.00 0.00 72 1014.9
20260904092525 83 282 1.0 2.0 0.00 0.00 0.00 71 1014.9
20260904091524 83 278 1.0 2.0 0.00 0.00 0.00 71 1014.8
20260904090604 83 281 1.0 2.0 0.00 0.00 0.00 71 1014.7
20260904085524 83 274 2.0 3.0 0.00 0.00 0.00 71 1014.6
20260904084524 83 285 1.0 2.0 0.00 0.00 0.00 71 1014.6
20260904083524 83 285 1.0 2.0 0.00 0.00 0.00 71 1014.5
20260904082604 83 290 1.0 1.0 0.00 0.00 0.00 71 1014.5
20260904081524 83 285 1.0 2.0 0.00 0.00 0.00 71 1014.6
20260904080605 84 273 1.0 3.0 0.00 0.00 0.00 70 1014.5
20260904075525 84 270 1.0 2.0 0.00 0.00 0.00 70 1014.4
20260904074607 84 277 1.0 2.0 0.00 0.00 0.00 70 1014.5
20260904073525 84 292 1.0 2.0 0.00 0.00 0.00 70 1014.5
20260904072525 84 283 1.0 2.0 0.00 0.00 0.00 69 1014.4
20260904071645 84 281 1.0 2.0 0.00 0.00 0.00 69 1014.5
20260904070518 84 289 1.0 1.0 0.00 0.00 0.00 68 1014.5
20260904065518 85 292 1.0 2.0 0.00 0.00 0.00 68 1014.5
20260904064519 85 282 2.0 2.0 0.00 0.00 0.00 68 1014.5
20260904063519 85 292 1.0 2.0 0.00 0.00 0.00 68 1014.5
20260904062519 85 291 1.0 2.0 0.00 0.00 0.00 67 1014.5
20260904061519 85 286 1.0 2.0 0.00 0.00 0.00 67 1014.5
20260904060559 86 287 1.0 2.0 0.00 0.00 0.00 67 1014.5
20260904055519 0 291 0.0 2.0 0.00 0.00 0.00
20260904054517 0 293 1.0 2.0 0.00 0.00 0.00
20260904053519 86 288 1.0 3.0 0.00 0.00 0.00 65 1014.4
20260904052600 86 288 1.0 2.0 0.00 0.00 0.00 65 1014.5
20260904051520 87 288 1.0 2.0 0.00 0.00 0.00 64 1014.4
20260904050557 87 295 1.0 3.0 0.00 0.00 0.00 64 1014.4
20260904045517 87 288 1.0 2.0 0.00 0.00 0.00 64 1014.4
20260904044600 87 292 1.0 3.0 0.00 0.00 0.00 63 1014.4
20260904043600 88 297 1.0 2.0 0.00 0.00 0.00 62 1014.5
20260904042518 88 290 1.0 3.0 0.00 0.00 0.00 62 1014.3
20260904041517 88 292 1.0 2.0 0.00 0.00 0.00 62 1014.3
20260904040518 88 290 1.0 2.0 0.00 0.00 0.00 62 1014.3
20260904035601 88 296 1.0 3.0 0.00 0.00 0.00 61 1014.4
20260904034518 88 291 1.0 3.0 0.00 0.00 0.00 61 1014.4
20260904033518 89 293 1.0 2.0 0.00 0.00 0.00 61 1014.3
20260904032518 89 289 1.0 2.0 0.00 0.00 0.00 60 1014.3
20260904031518 89 289 1.0 3.0 0.00 0.00 0.00 60 1014.3
20260904030518 89 294 1.0 3.0 0.00 0.00 0.00 60 1014.2
20260904025518 89 290 1.0 3.0 0.00 0.00 0.00 59 1014.2
20260904024519 90 290 1.0 3.0 0.00 0.00 0.00 58 1014.1
20260904023522 90 294 1.0 2.0 0.00 0.00 0.00 58 1014.0
20260904022519 90 289 1.0 2.0 0.00 0.00 0.00 57 1014.0
20260904021519 91 294 1.0 4.0 0.00 0.00 0.00 57 1013.9
20260904020522 91 293 1.0 3.0 0.00 0.00 0.00 56 1013.7
20260904015519 91 292 1.0 3.0 0.00 0.00 0.00 55 1013.7
20260904014519 92 290 1.0 3.0 0.00 0.00 0.00 54 1013.6
20260904013517 92 288 1.0 3.0 0.00 0.00 0.00 53 1013.5
20260904012519 92 291 0.0 2.0 0.00 0.00 0.00 52 1013.4
20260904011600 93 297 1.0 2.0 0.00 0.00 0.00 51 1013.3
20260904010520 93 298 1.0 2.0 0.00 0.00 0.00 50 1013.2
20260904005517 93 295 1.0 3.0 0.00 0.00 0.00 49 1013.1
20260904004557 94 297 0.0 2.0 0.00 0.00 0.00 48 1013.0
20260904003520 94 293 1.0 2.0 0.00 0.00 0.00 48 1012.9
20260904002520 95 292 1.0 3.0 0.00 0.00 0.00 47 1012.9
20260904001517 95 290 1.0 2.0 0.00 0.00 0.00 47 1012.8
20260904000558 96 291 1.0 2.0 0.00 0.00 0.00 46 1012.8
20260903234521 97 298 1.0 3.0 0.00 0.00 0.00 44 1012.8
20260903233518 97 295 1.0 3.0 0.00 0.00 0.00 44 1012.8